Time,TemperatureF,DewpointF,PressureIn,WindDirection,WindDirectionDegrees,WindSpeedMPH,WindSpeedGustMPH,Humidity,HourlyPrecipIn,Conditions,Clouds,dailyrainin,SoftwareType,DateUTC
2013-03-05 00:00:00,32.7,25.7,29.93,NE,47,12.5,17.4,75,0.00,,OVC055,0.00,VWS V14.00,2013-03-05 06:00:00,
2013-03-05 00:10:00,32.7,25.7,29.93,East,94,7.2,17.4,75,0.00,,OVC055,0.00,VWS V14.00,2013-03-05 06:10:00,
2013-03-05 00:20:00,32.7,26.0,29.93,NE,54,11.6,17.4,76,0.00,,OVC055,0.00,VWS V14.00,2013-03-05 06:20:00,
2013-03-05 00:30:00,32.7,26.0,29.93,NE,55,8.1,16.1,76,0.00,,OVC055,0.00,VWS V14.00,2013-03-05 06:30:00,
2013-03-05 00:40:00,32.7,26.0,29.93,East,80,10.7,17.4,76,0.00,,OVC055,0.00,VWS V14.00,2013-03-05 06:40:00,
2013-03-05 00:50:00,32.7,26.3,29.93,NNE,32,8.9,13.4,77,0.00,,OVC055,0.00,VWS V14.00,2013-03-05 06:50:00,
2013-03-05 01:00:00,32.7,26.3,29.93,ENE,61,8.1,20.1,77,0.00,,OVC055,0.00,VWS V14.00,2013-03-05 07:00:00,
2013-03-05 01:10:00,32.7,26.3,29.91,NE,50,7.2,16.1,77,0.00,,OVC055,0.00,VWS V14.00,2013-03-05 07:10:00,
2013-03-05 01:20:00,32.7,26.6,29.91,NE,34,11.6,16.6,78,0.00,,OVC055,0.00,VWS V14.00,2013-03-05 07:20:00,
2013-03-05 01:30:00,32.7,26.6,29.91,ENE,59,11.6,16.1,78,0.00,,OVC055,0.00,VWS V14.00,2013-03-05 07:30:00,
2013-03-05 01:40:00,32.7,26.6,29.91,ENE,74,10.7,17.4,78,0.00,,OVC055,0.00,VWS V14.00,2013-03-05 07:40:00,
2013-03-05 01:50:00,32.7,26.6,29.91,NE,48,9.8,16.1,78,0.00,,OVC055,0.00,VWS V14.00,2013-03-05 07:50:00,
2013-03-05 02:00:00,32.7,26.9,29.91,ENE,57,21.0,21.0,79,0.00,,OVC055,0.00,VWS V14.00,2013-03-05 08:00:00,
2013-03-05 02:10:00,32.7,26.9,29.91,NE,39,12.5,21.0,79,0.00,,OVC055,0.00,VWS V14.00,2013-03-05 08:10:00,
2013-03-05 02:20:00,32.7,26.9,29.91,ENE,57,9.8,16.1,79,0.00,,OVC017,0.00,VWS V14.00,2013-03-05 08:20:00,
2013-03-05 02:30:00,32.7,26.9,29.88,ENE,76,12.5,15.2,79,0.00,,OVC017,0.00,VWS V14.00,2013-03-05 08:30:00,
2013-03-05 02:40:00,32.7,26.9,29.88,NE,46,5.4,17.4,79,0.00,,OVC017,0.00,VWS V14.00,2013-03-05 08:40:00,
2013-03-05 02:50:00,32.7,26.9,29.88,ENE,62,8.1,16.6,79,0.00,,OVC017,0.00,VWS V14.00,2013-03-05 08:50:00,
2013-03-05 03:00:00,32.7,26.9,29.88,NE,37,7.2,13.4,79,0.00,,OVC017,0.00,VWS V14.00,2013-03-05 09:00:00,
2013-03-05 03:10:00,32.7,26.9,29.88,ENE,73,15.2,17.4,79,0.00,,OVC017,0.00,VWS V14.00,2013-03-05 09:10:00,
2013-03-05 03:20:00,32.7,26.9,29.88,NE,45,8.1,16.1,79,0.00,,OVC017,0.00,VWS V14.00,2013-03-05 09:20:00,
2013-03-05 03:30:00,32.7,26.9,29.88,NNE,27,11.6,21.0,79,0.00,,OVC017,0.00,VWS V14.00,2013-03-05 09:30:00,
2013-03-05 03:40:00,32.7,26.9,29.88,ENE,74,7.2,17.4,79,0.00,,OVC017,0.00,VWS V14.00,2013-03-05 09:40:00,
2013-03-05 03:50:00,32.7,26.9,29.88,NE,39,10.7,19.2,79,0.00,,OVC017,0.00,VWS V14.00,2013-03-05 09:50:00,
2013-03-05 04:00:00,32.7,26.9,29.85,NE,51,6.3,15.2,79,0.00,,OVC017,0.00,VWS V14.00,2013-03-05 10:00:00,
2013-03-05 04:10:00,32.7,26.9,29.88,ENE,63,12.5,16.1,79,0.00,,OVC017,0.00,VWS V14.00,2013-03-05 10:10:00,
2013-03-05 04:20:00,32.7,26.9,29.88,NE,45,4.5,12.5,79,0.00,,OVC017,0.00,VWS V14.00,2013-03-05 10:20:00,
2013-03-05 04:30:00,32.7,26.9,29.85,ENE,60,8.1,15.2,79,0.00,,OVC015,0.00,VWS V14.00,2013-03-05 10:30:00,
2013-03-05 04:40:00,32.7,26.9,29.85,ENE,68,6.3,16.6,79,0.00,,OVC015,0.00,VWS V14.00,2013-03-05 10:40:00,
2013-03-05 04:50:00,32.7,26.9,29.85,NE,35,8.1,12.5,79,0.00,,OVC015,0.00,VWS V14.00,2013-03-05 10:50:00,
2013-03-05 05:00:00,32.2,29.3,29.85,SE,125,10.7,12.5,89,0.00,,OVC015,0.00,VWS V14.00,2013-03-05 11:00:00,
2013-03-05 05:10:00,32.2,29.3,29.85,NE,55,12.5,16.6,89,0.00,,,0.00,VWS V14.00,2013-03-05 11:10:00,
2013-03-05 05:20:00,32.2,29.3,29.85,NE,51,9.8,15.2,89,0.00,,,0.00,VWS V14.00,2013-03-05 11:20:00,
2013-03-05 05:30:00,32.2,29.3,29.85,ENE,75,7.2,10.7,89,0.00,,OVC015,0.00,VWS V14.00,2013-03-05 11:30:00,
2013-03-05 05:40:00,32.2,29.3,29.85,ENE,68,7.2,17.4,89,0.00,,OVC015,0.00,VWS V14.00,2013-03-05 11:40:00,
2013-03-05 05:50:00,32.2,29.3,29.85,NE,42,6.3,12.5,89,0.00,,OVC015,0.00,VWS V14.00,2013-03-05 11:50:00,
2013-03-05 06:00:00,32.2,29.3,29.85,NNE,24,8.1,15.2,89,0.00,,OVC015,0.00,VWS V14.00,2013-03-05 12:00:00,
2013-03-05 06:10:00,32.2,29.3,29.85,NE,49,11.6,15.2,89,0.00,,,0.00,VWS V14.00,2013-03-05 12:10:00,
2013-03-05 06:20:00,32.2,29.3,29.85,NE,38,9.8,12.5,89,0.00,,,0.00,VWS V14.00,2013-03-05 12:20:00,
2013-03-05 06:30:00,32.2,29.3,29.85,ENE,75,7.2,12.5,89,0.00,,OVC017,0.00,VWS V14.00,2013-03-05 12:30:00,
2013-03-05 06:40:00,32.2,29.3,29.85,ENE,66,0.0,11.6,89,0.00,,OVC017,0.00,VWS V14.00,2013-03-05 12:40:00,
2013-03-05 06:50:00,32.2,29.3,29.85,East,89,0.0,8.1,89,0.00,,,0.00,VWS V14.00,2013-03-05 12:50:00,
2013-03-05 07:00:00,32.2,29.3,29.85,ENE,69,0.0,9.8,89,0.00,,,0.00,VWS V14.00,2013-03-05 13:00:00,
2013-03-05 07:10:00,32.2,29.3,29.85,NE,55,0.0,9.8,89,0.00,,,0.00,VWS V14.00,2013-03-05 13:10:00,
2013-03-05 07:20:00,32.2,29.3,29.85,ENE,61,0.0,8.1,89,0.00,,,0.00,VWS V14.00,2013-03-05 13:20:00,
2013-03-05 07:30:00,32.2,30.9,29.85,NE,54,0.0,7.2,95,0.00,,,0.00,VWS V14.00,2013-03-05 13:30:00,
2013-03-05 07:40:00,32.2,30.9,29.85,ENE,64,0.0,5.4,95,0.00,,,0.00,VWS V14.00,2013-03-05 13:40:00,
2013-03-05 07:50:00,32.2,31.2,29.85,North,353,0.0,7.2,96,0.00,,,0.00,VWS V14.00,2013-03-05 13:50:00,
2013-03-05 08:00:00,32.2,31.4,29.85,East,99,0.0,0.0,97,0.00,,,0.00,VWS V14.00,2013-03-05 14:00:00,
2013-03-05 08:10:00,32.2,31.4,29.85,East,79,0.0,0.0,97,0.00,,,0.00,VWS V14.00,2013-03-05 14:10:00,
2013-03-05 08:20:00,32.4,31.6,29.85,NE,46,0.0,0.0,97,0.00,,,0.00,VWS V14.00,2013-03-05 14:20:00,
2013-03-05 08:30:00,32.5,32.0,29.85,ENE,62,0.0,0.0,98,0.00,,,0.00,VWS V14.00,2013-03-05 14:30:00,
2013-03-05 08:40:00,32.5,32.0,29.85,NE,41,0.0,0.0,98,0.00,,,0.00,VWS V14.00,2013-03-05 14:40:00,
2013-03-05 08:50:00,32.5,32.0,29.85,NE,54,0.0,0.0,98,0.00,,,0.00,VWS V14.00,2013-03-05 14:50:00,
2013-03-05 09:00:00,32.7,32.2,29.82,East,81,0.0,0.0,98,0.00,,,0.00,VWS V14.00,2013-03-05 15:00:00,
2013-03-05 09:10:00,32.9,32.4,29.82,NE,53,0.0,0.0,98,0.00,,,0.00,VWS V14.00,2013-03-05 15:10:00,
2013-03-05 09:20:00,33.1,32.6,29.82,ENE,64,0.0,0.0,98,0.00,,,0.00,VWS V14.00,2013-03-05 15:20:00,
2013-03-05 09:30:00,33.3,32.8,29.82,NE,45,0.0,0.0,98,0.00,,,0.00,VWS V14.00,2013-03-05 15:30:00,
2013-03-05 09:40:00,33.3,32.8,29.82,NE,46,0.0,0.0,98,0.00,,,0.00,VWS V14.00,2013-03-05 15:40:00,
2013-03-05 09:50:00,33.3,32.8,29.82,NE,37,0.0,0.0,98,0.00,,,0.00,VWS V14.00,2013-03-05 15:50:00,
2013-03-05 10:00:00,33.3,32.8,29.82,ENE,65,0.0,0.0,98,0.00,,,0.00,VWS V14.00,2013-03-05 16:00:00,
2013-03-05 10:10:00,33.6,33.1,29.82,NE,45,0.0,0.0,98,0.00,,,0.00,VWS V14.00,2013-03-05 16:10:00,
2013-03-05 10:20:00,33.8,33.0,29.82,NE,35,0.0,0.0,97,0.00,,,0.00,VWS V14.00,2013-03-05 16:20:00,
2013-03-05 10:30:00,34.0,33.2,29.79,ENE,60,0.0,0.0,97,0.00,,,0.00,VWS V14.00,2013-03-05 16:30:00,
2013-03-05 10:40:00,34.0,33.2,29.79,NE,48,0.0,0.0,97,0.00,,,0.00,VWS V14.00,2013-03-05 16:40:00,
2013-03-05 10:50:00,34.2,33.4,29.79,NE,48,0.0,0.0,97,0.00,,,0.00,VWS V14.00,2013-03-05 16:50:00,
2013-03-05 11:00:00,34.0,33.0,29.79,ENE,75,0.0,0.0,96,0.00,,,0.00,VWS V14.00,2013-03-05 17:00:00,
2013-03-05 11:10:00,34.0,33.0,29.79,ENE,58,4.5,7.2,96,0.00,,,0.00,VWS V14.00,2013-03-05 17:10:00,
2013-03-05 11:20:00,34.2,33.1,29.79,ENE,69,6.3,8.1,96,0.00,,,0.00,VWS V14.00,2013-03-05 17:20:00,
2013-03-05 11:30:00,34.3,33.3,29.79,ENE,65,0.0,9.8,96,0.00,,,0.00,VWS V14.00,2013-03-05 17:30:00,
2013-03-05 11:40:00,34.3,33.3,29.79,NE,53,7.2,7.2,96,0.00,,,0.00,VWS V14.00,2013-03-05 17:40:00,
2013-03-05 11:50:00,34.3,33.3,29.79,NE,45,6.3,9.8,96,0.00,,,0.00,VWS V14.00,2013-03-05 17:50:00,
2013-03-05 12:00:00,34.5,33.8,29.79,NE,55,6.3,10.7,97,0.00,,,0.00,VWS V14.00,2013-03-05 18:00:00,
2013-03-05 12:10:00,34.3,33.3,29.79,NNE,29,8.1,8.1,96,0.00,,,0.00,VWS V14.00,2013-03-05 18:10:00,
2013-03-05 12:20:00,34.3,33.6,29.79,NNE,26,0.0,8.1,97,0.00,,,0.00,VWS V14.00,2013-03-05 18:20:00,
2013-03-05 12:30:00,34.5,33.8,29.79,North,10,5.4,6.3,97,0.00,,,0.00,VWS V14.00,2013-03-05 18:30:00,
2013-03-05 12:40:00,34.2,33.4,29.79,NNE,25,5.4,8.1,97,0.00,,,0.00,VWS V14.00,2013-03-05 18:40:00,
2013-03-05 12:50:00,34.2,33.4,29.79,NNE,18,0.0,7.2,97,0.00,,,0.00,VWS V14.00,2013-03-05 18:50:00,
2013-03-05 13:00:00,34.0,33.2,29.76,NE,39,4.5,8.1,97,0.00,,,0.00,VWS V14.00,2013-03-05 19:00:00,
2013-03-05 13:10:00,34.2,33.4,29.76,NNE,29,0.0,9.8,97,0.00,,,0.00,VWS V14.00,2013-03-05 19:10:00,
2013-03-05 13:30:00,34.0,33.2,29.76,ENE,59,0.0,8.1,97,0.00,,,0.00,VWS V14.00,2013-03-05 19:30:00,
2013-03-05 13:40:00,33.8,33.0,29.76,NE,34,4.5,8.1,97,0.00,,,0.00,VWS V14.00,2013-03-05 19:40:00,
2013-03-05 13:50:00,33.6,32.9,29.76,North,355,7.2,11.6,97,0.00,,,0.00,VWS V14.00,2013-03-05 19:50:00,
2013-03-05 14:00:00,33.8,33.0,29.76,NNE,15,0.0,5.4,97,0.00,,,0.00,VWS V14.00,2013-03-05 20:00:00,
2013-03-05 14:10:00,33.6,33.1,29.76,NNE,24,6.3,6.3,98,0.00,,,0.00,VWS V14.00,2013-03-05 20:10:00,
2013-03-05 14:20:00,33.6,33.1,29.76,North,359,4.5,7.2,98,0.00,,,0.00,VWS V14.00,2013-03-05 20:20:00,
2013-03-05 14:30:00,33.6,33.1,29.76,North,5,5.4,8.1,98,0.00,,,0.00,VWS V14.00,2013-03-05 20:30:00,
2013-03-05 14:40:00,33.4,32.9,29.76,NNW,342,5.4,8.1,98,0.00,,,0.00,VWS V14.00,2013-03-05 20:40:00,
2013-03-05 14:50:00,33.1,32.6,29.76,North,1,5.4,7.2,98,0.00,,,0.00,VWS V14.00,2013-03-05 20:50:00,
2013-03-05 15:00:00,32.9,32.4,29.76,North,353,5.4,10.7,98,0.00,,,0.00,VWS V14.00,2013-03-05 21:00:00,
2013-03-05 15:10:00,32.7,32.2,29.76,North,11,7.2,9.8,98,0.00,,,0.00,VWS V14.00,2013-03-05 21:10:00,